Year,Month,Day,Hour,Minute,Value (Times are PST for temperature in C)
2007,05,29,00,00,10.90
2007,05,29,00,01,10.90
2007,05,29,00,02,10.90
2007,05,29,00,03,10.90
2007,05,29,00,04,10.90
2007,05,29,00,05,10.90
2007,05,29,00,06,10.90
2007,05,29,00,07,10.90
2007,05,29,00,08,10.90
2007,05,29,00,09,10.80
2007,05,29,00,10,10.80
2007,05,29,00,11,10.80
2007,05,29,00,12,10.70
2007,05,29,00,13,10.70
2007,05,29,00,14,10.60
2007,05,29,00,15,10.60
2007,05,29,00,16,10.60
2007,05,29,00,17,10.60
2007,05,29,00,18,10.60
2007,05,29,00,19,10.60
2007,05,29,00,20,10.60
2007,05,29,00,21,10.60
2007,05,29,00,22,10.60
2007,05,29,00,23,10.60
2007,05,29,00,24,10.50
2007,05,29,00,25,10.50
2007,05,29,00,26,10.50
2007,05,29,00,27,10.50
2007,05,29,00,28,10.50
2007,05,29,00,29,10.50
2007,05,29,00,30,10.50
2007,05,29,00,31,10.40
2007,05,29,00,32,10.40
2007,05,29,00,33,10.40
2007,05,29,00,34,10.40
2007,05,29,00,35,10.30
2007,05,29,00,36,10.30
2007,05,29,00,37,10.30
2007,05,29,00,38,10.30
2007,05,29,00,39,10.30
2007,05,29,00,40,10.30
2007,05,29,00,41,10.20
2007,05,29,00,42,10.20
2007,05,29,00,43,10.20
2007,05,29,00,44,10.20
2007,05,29,00,45,10.20
2007,05,29,00,46,10.20
2007,05,29,00,47,10.20
2007,05,29,00,48,10.10
2007,05,29,00,49,10.10
2007,05,29,00,50,10.10
2007,05,29,00,51,10.10
2007,05,29,00,52,10.10
2007,05,29,00,53,10.00
2007,05,29,00,54,10.00
2007,05,29,00,55,10.00
2007,05,29,00,56,9.90
2007,05,29,00,57,9.90
2007,05,29,00,58,9.90
2007,05,29,00,59,9.90
2007,05,29,01,00,9.80
2007,05,29,01,01,9.80
2007,05,29,01,02,9.80
2007,05,29,01,03,9.70
2007,05,29,01,04,9.70
2007,05,29,01,05,9.60
2007,05,29,01,06,9.60
2007,05,29,01,07,9.60
2007,05,29,01,08,9.60
2007,05,29,01,09,9.60
2007,05,29,01,10,9.60
2007,05,29,01,11,9.60
2007,05,29,01,12,9.60
2007,05,29,01,13,9.60
2007,05,29,01,14,9.60
2007,05,29,01,15,9.60
2007,05,29,01,16,9.60
2007,05,29,01,17,9.60
2007,05,29,01,18,9.60
2007,05,29,01,19,9.60
2007,05,29,01,20,9.60
2007,05,29,01,21,9.60
2007,05,29,01,22,9.60
2007,05,29,01,23,9.60
2007,05,29,01,24,9.60
2007,05,29,01,25,9.60
2007,05,29,01,26,9.60
2007,05,29,01,27,9.60
2007,05,29,01,28,9.50
2007,05,29,01,29,9.50
2007,05,29,01,30,9.50
2007,05,29,01,31,9.40
2007,05,29,01,32,9.40
2007,05,29,01,33,9.40
2007,05,29,01,34,9.40
2007,05,29,01,35,9.30
2007,05,29,01,36,9.30
2007,05,29,01,37,9.30
2007,05,29,01,38,9.30
2007,05,29,01,39,9.30
2007,05,29,01,40,9.20
2007,05,29,01,41,9.20
2007,05,29,01,42,9.20
2007,05,29,01,43,9.20
2007,05,29,01,44,9.20
2007,05,29,01,45,9.10
2007,05,29,01,46,9.10
2007,05,29,01,47,9.10
2007,05,29,01,48,9.10
2007,05,29,01,49,9.00
2007,05,29,01,50,9.00
2007,05,29,01,51,9.00
2007,05,29,01,52,9.00
2007,05,29,01,53,9.00
2007,05,29,01,54,9.10
2007,05,29,01,55,9.10
2007,05,29,01,56,9.10
2007,05,29,01,57,9.10
2007,05,29,01,58,9.10
2007,05,29,01,59,9.10
2007,05,29,02,00,9.10
2007,05,29,02,01,9.10
2007,05,29,02,02,9.10
2007,05,29,02,03,9.10
2007,05,29,02,04,9.00
2007,05,29,02,05,8.90
2007,05,29,02,06,8.90
2007,05,29,02,07,8.90
2007,05,29,02,08,8.90
2007,05,29,02,09,8.90
2007,05,29,02,10,8.90
2007,05,29,02,11,8.90
2007,05,29,02,12,8.90
2007,05,29,02,13,8.80
2007,05,29,02,14,8.80
2007,05,29,02,15,8.80
2007,05,29,02,16,8.80
2007,05,29,02,17,8.80
2007,05,29,02,18,8.80
2007,05,29,02,19,8.80
2007,05,29,02,20,8.80
2007,05,29,02,21,8.80
2007,05,29,02,22,8.80
2007,05,29,02,23,8.80
2007,05,29,02,24,8.80
2007,05,29,02,25,8.80
2007,05,29,02,26,8.80
2007,05,29,02,27,8.80
2007,05,29,02,28,8.80
2007,05,29,02,29,8.80
2007,05,29,02,30,8.90
2007,05,29,02,31,8.90
2007,05,29,02,32,8.90
2007,05,29,02,33,8.90
2007,05,29,02,34,8.90
2007,05,29,02,35,8.90
2007,05,29,02,36,8.90
2007,05,29,02,37,8.80
2007,05,29,02,38,8.80
2007,05,29,02,39,8.80
2007,05,29,02,40,8.80
2007,05,29,02,41,8.80
2007,05,29,02,42,8.80
2007,05,29,02,43,8.80
2007,05,29,02,44,8.80
2007,05,29,02,45,8.80
2007,05,29,02,46,8.80
2007,05,29,02,47,8.80
2007,05,29,02,48,8.80
2007,05,29,02,49,8.80
2007,05,29,02,50,8.80
2007,05,29,02,51,8.80
2007,05,29,02,52,8.80
2007,05,29,02,53,8.80
2007,05,29,02,54,8.80
2007,05,29,02,55,8.70
2007,05,29,02,56,8.70
2007,05,29,02,57,8.70
2007,05,29,02,58,8.70
2007,05,29,02,59,8.70
2007,05,29,03,00,8.70
2007,05,29,03,01,8.70
2007,05,29,03,02,8.70
2007,05,29,03,03,8.60
2007,05,29,03,04,8.60
2007,05,29,03,05,8.60
2007,05,29,03,06,8.60
2007,05,29,03,07,8.60
2007,05,29,03,08,8.60
2007,05,29,03,09,8.60
2007,05,29,03,10,8.50
2007,05,29,03,11,8.50
2007,05,29,03,12,8.50
2007,05,29,03,13,8.50
2007,05,29,03,14,8.50
2007,05,29,03,15,8.50
2007,05,29,03,16,8.50
2007,05,29,03,17,8.50
2007,05,29,03,18,8.50
2007,05,29,03,19,8.60
2007,05,29,03,20,8.60
2007,05,29,03,21,8.60
2007,05,29,03,22,8.60
2007,05,29,03,23,8.60
2007,05,29,03,24,8.60
2007,05,29,03,25,8.60
2007,05,29,03,26,8.60
2007,05,29,03,27,8.60
2007,05,29,03,28,8.60
2007,05,29,03,29,8.60
2007,05,29,03,30,8.60
2007,05,29,03,31,8.60
2007,05,29,03,32,8.60
2007,05,29,03,33,8.60
2007,05,29,03,34,8.60
2007,05,29,03,35,8.60
2007,05,29,03,36,8.60
2007,05,29,03,37,8.60
2007,05,29,03,38,8.60
2007,05,29,03,39,8.60
2007,05,29,03,40,8.60
2007,05,29,03,41,8.60
2007,05,29,03,42,8.50
2007,05,29,03,43,8.50
2007,05,29,03,44,8.50
2007,05,29,03,45,8.40
2007,05,29,03,46,8.40
2007,05,29,03,47,8.40
2007,05,29,03,48,8.40
2007,05,29,03,49,8.30
2007,05,29,03,50,8.30
2007,05,29,03,51,8.30
2007,05,29,03,52,8.30
2007,05,29,03,53,8.30
2007,05,29,03,54,8.30
2007,05,29,03,55,8.30
2007,05,29,03,56,8.30
2007,05,29,03,57,8.20
2007,05,29,03,58,8.20
2007,05,29,03,59,8.20
2007,05,29,04,00,8.20
2007,05,29,04,01,8.20
2007,05,29,04,02,8.20
2007,05,29,04,03,8.20
2007,05,29,04,04,8.20
2007,05,29,04,05,8.20
2007,05,29,04,06,8.20
2007,05,29,04,07,8.20
2007,05,29,04,08,8.10
2007,05,29,04,09,8.10
2007,05,29,04,10,8.10
2007,05,29,04,11,8.10
2007,05,29,04,12,8.10
2007,05,29,04,13,8.10
2007,05,29,04,14,8.10
2007,05,29,04,15,8.10
2007,05,29,04,16,8.10
2007,05,29,04,17,8.10
2007,05,29,04,18,8.10
2007,05,29,04,19,8.10
2007,05,29,04,20,8.10
2007,05,29,04,21,8.10
2007,05,29,04,22,8.10
2007,05,29,04,23,8.10
2007,05,29,04,24,8.10
2007,05,29,04,25,8.10
2007,05,29,04,26,8.10
2007,05,29,04,27,8.10
2007,05,29,04,28,8.10
2007,05,29,04,29,8.10
2007,05,29,04,30,8.10
2007,05,29,04,31,8.10
2007,05,29,04,32,8.10
2007,05,29,04,33,8.10
2007,05,29,04,34,8.10
2007,05,29,04,35,8.00
2007,05,29,04,36,8.00
2007,05,29,04,37,8.00
2007,05,29,04,38,7.90
2007,05,29,04,39,7.90
2007,05,29,04,40,7.90
2007,05,29,04,41,7.90
2007,05,29,04,42,7.90
2007,05,29,04,43,7.90
2007,05,29,04,44,7.90
2007,05,29,04,45,7.90
2007,05,29,04,46,7.90
2007,05,29,04,47,7.90
2007,05,29,04,48,7.90
2007,05,29,04,49,7.90
2007,05,29,04,50,7.80
2007,05,29,04,51,7.80
2007,05,29,04,52,7.80
2007,05,29,04,53,7.80
2007,05,29,04,54,7.80
2007,05,29,04,55,7.80
2007,05,29,04,56,7.80
2007,05,29,04,57,7.80
2007,05,29,04,58,7.80
2007,05,29,04,59,7.80
2007,05,29,05,00,7.80
2007,05,29,05,01,7.80
2007,05,29,05,02,7.80
2007,05,29,05,03,7.80
2007,05,29,05,04,7.80
2007,05,29,05,05,7.80
2007,05,29,05,06,7.80
2007,05,29,05,07,7.90
2007,05,29,05,08,7.90
2007,05,29,05,09,7.90
2007,05,29,05,10,7.90
2007,05,29,05,11,7.90
2007,05,29,05,12,7.90
2007,05,29,05,13,8.00
2007,05,29,05,14,8.00
2007,05,29,05,15,8.00
2007,05,29,05,16,8.00
2007,05,29,05,17,8.00
2007,05,29,05,18,8.00
2007,05,29,05,19,8.00
2007,05,29,05,20,8.00
2007,05,29,05,21,8.00
2007,05,29,05,22,8.00
2007,05,29,05,23,8.00
2007,05,29,05,24,8.00
2007,05,29,05,25,8.00
2007,05,29,05,26,7.90
2007,05,29,05,27,7.90
2007,05,29,05,28,7.90
2007,05,29,05,29,7.90
2007,05,29,05,30,7.90
2007,05,29,05,31,7.90
2007,05,29,05,32,7.90
2007,05,29,05,33,7.90
2007,05,29,05,34,7.90
2007,05,29,05,35,7.90
2007,05,29,05,36,7.90
2007,05,29,05,37,7.90
2007,05,29,05,38,7.90
2007,05,29,05,39,7.90
2007,05,29,05,40,7.90
2007,05,29,05,41,8.00
2007,05,29,05,42,8.00
2007,05,29,05,43,8.00
2007,05,29,05,44,8.00
2007,05,29,05,45,8.10
2007,05,29,05,46,8.10
2007,05,29,05,47,8.00
2007,05,29,05,48,8.00
2007,05,29,05,49,8.00
2007,05,29,05,50,8.00
2007,05,29,05,51,8.10
2007,05,29,05,52,8.10
2007,05,29,05,53,8.10
2007,05,29,05,54,8.10
2007,05,29,05,55,8.10
2007,05,29,05,56,8.10
2007,05,29,05,57,8.10
2007,05,29,05,58,8.10
2007,05,29,05,59,8.20
2007,05,29,06,00,8.20
2007,05,29,06,01,8.20
2007,05,29,06,02,8.20
2007,05,29,06,03,8.20
2007,05,29,06,04,8.30
2007,05,29,06,05,8.30
2007,05,29,06,06,8.40
2007,05,29,06,07,8.50
2007,05,29,06,08,8.50
2007,05,29,06,09,8.60
2007,05,29,06,10,8.70
2007,05,29,06,11,8.70
2007,05,29,06,12,8.80
2007,05,29,06,13,8.80
2007,05,29,06,14,8.80
2007,05,29,06,15,8.90
2007,05,29,06,16,8.90
2007,05,29,06,17,9.00
2007,05,29,06,18,9.00
2007,05,29,06,19,9.10
2007,05,29,06,20,9.10
2007,05,29,06,21,9.10
2007,05,29,06,22,9.10
2007,05,29,06,23,9.10
2007,05,29,06,24,9.20
2007,05,29,06,25,9.20
2007,05,29,06,26,9.20
2007,05,29,06,27,9.30
2007,05,29,06,28,9.30
2007,05,29,06,29,9.30
2007,05,29,06,30,9.40
2007,05,29,06,31,9.40
2007,05,29,06,32,9.50
2007,05,29,06,33,9.50
2007,05,29,06,34,9.60
2007,05,29,06,35,9.60
2007,05,29,06,36,9.70
2007,05,29,06,37,9.70
2007,05,29,06,38,9.80
2007,05,29,06,39,9.90
2007,05,29,06,40,10.00
2007,05,29,06,41,10.00
2007,05,29,06,42,10.10
2007,05,29,06,43,10.20
2007,05,29,06,44,10.20
2007,05,29,06,45,10.30
2007,05,29,06,46,10.30
2007,05,29,06,47,10.30
2007,05,29,06,48,10.40
2007,05,29,06,49,10.40
2007,05,29,06,50,10.50
2007,05,29,06,51,10.50
2007,05,29,06,52,10.60
2007,05,29,06,53,10.60
2007,05,29,06,54,10.60
2007,05,29,06,55,10.70
2007,05,29,06,56,10.70
2007,05,29,06,57,10.80
2007,05,29,06,58,10.80
2007,05,29,06,59,10.90
2007,05,29,07,00,11.00
2007,05,29,07,01,11.10
2007,05,29,07,02,11.10
2007,05,29,07,03,11.20
2007,05,29,07,04,11.30
2007,05,29,07,05,11.30
2007,05,29,07,06,11.40
2007,05,29,07,07,11.50
2007,05,29,07,08,11.50
2007,05,29,07,09,11.60
2007,05,29,07,10,11.70
2007,05,29,07,11,11.80
2007,05,29,07,12,11.90
2007,05,29,07,13,11.90
2007,05,29,07,14,12.10
2007,05,29,07,15,12.10
2007,05,29,07,16,12.20
2007,05,29,07,17,12.30
2007,05,29,07,18,12.30
2007,05,29,07,19,12.40
2007,05,29,07,20,12.40
2007,05,29,07,21,12.50
2007,05,29,07,22,12.50
2007,05,29,07,23,12.60
2007,05,29,07,24,12.70
2007,05,29,07,25,12.70
2007,05,29,07,26,12.70
2007,05,29,07,27,12.80
2007,05,29,07,28,12.90
2007,05,29,07,29,12.90
2007,05,29,07,30,12.90
2007,05,29,07,31,13.00
2007,05,29,07,32,13.10
2007,05,29,07,33,13.10
2007,05,29,07,34,13.20
2007,05,29,07,35,13.20
2007,05,29,07,36,13.20
2007,05,29,07,37,13.20
2007,05,29,07,38,13.20
2007,05,29,07,39,13.20
2007,05,29,07,40,13.20
2007,05,29,07,41,13.20
2007,05,29,07,42,13.20
2007,05,29,07,43,13.30
2007,05,29,07,44,13.30
2007,05,29,07,45,13.30
2007,05,29,07,46,13.30
2007,05,29,07,47,13.30
2007,05,29,07,48,13.30
2007,05,29,07,49,13.40
2007,05,29,07,50,13.40
2007,05,29,07,51,13.40
2007,05,29,07,52,13.40
2007,05,29,07,53,13.50
2007,05,29,07,54,13.50
2007,05,29,07,55,13.60
2007,05,29,07,56,13.60
2007,05,29,07,57,13.60
2007,05,29,07,58,13.60
2007,05,29,07,59,13.60
2007,05,29,08,00,13.60
2007,05,29,08,01,13.60
2007,05,29,08,02,13.70
2007,05,29,08,03,13.70
2007,05,29,08,04,13.70
2007,05,29,08,05,13.70
2007,05,29,08,06,13.80
2007,05,29,08,07,13.80
2007,05,29,08,08,13.80
2007,05,29,08,09,13.80
2007,05,29,08,10,13.80
2007,05,29,08,11,13.90
2007,05,29,08,12,13.90
2007,05,29,08,13,14.00
2007,05,29,08,14,14.00
2007,05,29,08,15,14.00
2007,05,29,08,16,14.00
2007,05,29,08,17,14.00
2007,05,29,08,18,14.00
2007,05,29,08,19,13.90
2007,05,29,08,20,13.90
2007,05,29,08,21,13.90
2007,05,29,08,22,13.90
2007,05,29,08,23,13.90
2007,05,29,08,24,13.90
2007,05,29,08,25,14.00
2007,05,29,08,26,14.10
2007,05,29,08,27,14.10
2007,05,29,08,28,14.20
2007,05,29,08,29,14.30
2007,05,29,08,30,14.30
2007,05,29,08,31,14.40
2007,05,29,08,32,14.50
2007,05,29,08,33,14.50
2007,05,29,08,34,14.50
2007,05,29,08,35,14.60
2007,05,29,08,36,14.60
2007,05,29,08,37,14.70
2007,05,29,08,38,14.70
2007,05,29,08,39,14.80
2007,05,29,08,40,14.80
2007,05,29,08,41,14.80
2007,05,29,08,42,14.80
2007,05,29,08,43,14.70
2007,05,29,08,44,14.70
2007,05,29,08,45,14.60
2007,05,29,08,46,14.60
2007,05,29,08,47,14.60
2007,05,29,08,48,14.60
2007,05,29,08,49,14.60
2007,05,29,08,50,14.70
2007,05,29,08,51,14.70
2007,05,29,08,52,14.80
2007,05,29,08,53,14.80
2007,05,29,08,54,15.00
2007,05,29,08,55,15.00
2007,05,29,08,56,15.00
2007,05,29,08,57,15.00
2007,05,29,08,58,15.00
2007,05,29,08,59,15.00
2007,05,29,09,00,15.00
2007,05,29,09,01,15.00
2007,05,29,09,02,15.00
2007,05,29,09,03,15.00
2007,05,29,09,04,15.00
2007,05,29,09,05,15.00
2007,05,29,09,06,15.00
2007,05,29,09,07,15.00
2007,05,29,09,08,15.10
2007,05,29,09,09,15.20
2007,05,29,09,10,15.20
2007,05,29,09,11,15.20
2007,05,29,09,12,15.30
2007,05,29,09,13,15.30
2007,05,29,09,14,15.30
2007,05,29,09,15,15.30
2007,05,29,09,16,15.30
2007,05,29,09,17,15.30
2007,05,29,09,18,15.30
2007,05,29,09,19,15.30
2007,05,29,09,20,15.30
2007,05,29,09,21,15.40
2007,05,29,09,22,15.40
2007,05,29,09,23,15.30
2007,05,29,09,24,15.30
2007,05,29,09,25,15.30
2007,05,29,09,26,15.30
2007,05,29,09,27,15.40
2007,05,29,09,28,15.40
2007,05,29,09,29,15.40
2007,05,29,09,30,15.40
2007,05,29,09,31,15.40
2007,05,29,09,32,15.50
2007,05,29,09,33,15.50
2007,05,29,09,34,15.60
2007,05,29,09,35,15.60
2007,05,29,09,36,15.50
2007,05,29,09,37,15.30
2007,05,29,09,38,15.20
2007,05,29,09,39,15.20
2007,05,29,09,40,15.30
2007,05,29,09,41,15.30
2007,05,29,09,42,15.40
2007,05,29,09,43,15.40
2007,05,29,09,44,15.30
2007,05,29,09,45,15.30
2007,05,29,09,46,15.20
2007,05,29,09,47,15.20
2007,05,29,09,48,15.10
2007,05,29,09,49,15.10
2007,05,29,09,50,15.00
2007,05,29,09,51,15.00
2007,05,29,09,52,15.00
2007,05,29,09,53,15.00
2007,05,29,09,54,15.00
2007,05,29,09,55,15.10
2007,05,29,09,56,15.20
2007,05,29,09,57,15.30
2007,05,29,09,58,15.30
2007,05,29,09,59,15.40
2007,05,29,10,00,15.50
2007,05,29,10,01,15.50
2007,05,29,10,02,15.50
2007,05,29,10,03,15.50
2007,05,29,10,04,15.60
2007,05,29,10,05,15.60
2007,05,29,10,06,15.60
2007,05,29,10,07,15.60
2007,05,29,10,08,15.60
2007,05,29,10,09,15.60
2007,05,29,10,10,15.60
2007,05,29,10,11,15.60
2007,05,29,10,12,15.70
2007,05,29,10,13,15.60
2007,05,29,10,14,15.60
2007,05,29,10,15,15.60
2007,05,29,10,16,15.70
2007,05,29,10,17,15.70
2007,05,29,10,18,15.80
2007,05,29,10,19,15.80
2007,05,29,10,20,15.80
2007,05,29,10,21,15.80
2007,05,29,10,22,15.80
2007,05,29,10,23,15.80
2007,05,29,10,24,15.70
2007,05,29,10,25,15.70
2007,05,29,10,26,15.70
2007,05,29,10,27,15.70
2007,05,29,10,28,15.70
2007,05,29,10,29,15.80
2007,05,29,10,30,15.80
2007,05,29,10,31,15.90
2007,05,29,10,32,16.00
2007,05,29,10,33,16.00
2007,05,29,10,34,16.00
2007,05,29,10,35,16.10
2007,05,29,10,36,16.20
2007,05,29,10,37,16.20
2007,05,29,10,38,16.20
2007,05,29,10,39,16.20
2007,05,29,10,40,16.20
2007,05,29,10,41,16.30
2007,05,29,10,42,16.30
2007,05,29,10,43,16.40
2007,05,29,10,44,16.40
2007,05,29,10,45,16.40
2007,05,29,10,46,16.40
2007,05,29,10,47,16.40
2007,05,29,10,48,16.40
2007,05,29,10,49,16.40
2007,05,29,10,50,16.40
2007,05,29,10,51,16.50
2007,05,29,10,52,16.50
2007,05,29,10,53,16.60
2007,05,29,10,54,16.70
2007,05,29,10,55,16.80
2007,05,29,10,56,16.80
2007,05,29,10,57,16.80
2007,05,29,10,58,16.70
2007,05,29,10,59,16.60
2007,05,29,11,00,16.50
2007,05,29,11,01,16.40
2007,05,29,11,02,16.40
2007,05,29,11,03,16.30
2007,05,29,11,04,16.30
2007,05,29,11,05,16.20
2007,05,29,11,06,16.20
2007,05,29,11,07,16.20
2007,05,29,11,08,16.20
2007,05,29,11,09,16.20
2007,05,29,11,10,16.20
2007,05,29,11,11,16.20
2007,05,29,11,12,16.20
2007,05,29,11,13,16.30
2007,05,29,11,14,16.40
2007,05,29,11,15,16.50
2007,05,29,11,16,16.50
2007,05,29,11,17,16.60
2007,05,29,11,18,16.70
2007,05,29,11,19,16.70
2007,05,29,11,20,16.70
2007,05,29,11,21,16.80
2007,05,29,11,22,16.70
2007,05,29,11,23,16.60
2007,05,29,11,24,16.60
2007,05,29,11,25,16.60
2007,05,29,11,26,16.70
2007,05,29,11,27,16.90
2007,05,29,11,28,16.90
2007,05,29,11,29,16.90
2007,05,29,11,30,17.00
2007,05,29,11,31,17.00
2007,05,29,11,32,17.00
2007,05,29,11,33,17.00
2007,05,29,11,34,17.10
2007,05,29,11,35,17.10
2007,05,29,11,36,17.20
2007,05,29,11,37,17.30
2007,05,29,11,38,17.30
2007,05,29,11,39,17.40
2007,05,29,11,40,17.50
2007,05,29,11,41,17.60
2007,05,29,11,42,17.70
2007,05,29,11,43,17.80
2007,05,29,11,44,17.80
2007,05,29,11,45,17.70
2007,05,29,11,46,17.80
2007,05,29,11,47,17.80
2007,05,29,11,48,17.90
2007,05,29,11,49,17.80
2007,05,29,11,50,17.70
2007,05,29,11,51,17.60
2007,05,29,11,52,17.70
2007,05,29,11,53,17.70
2007,05,29,11,54,17.80
2007,05,29,11,55,17.90
2007,05,29,11,56,17.90
2007,05,29,11,57,17.80
2007,05,29,11,58,17.70
2007,05,29,11,59,17.70
2007,05,29,12,00,17.60
2007,05,29,12,01,17.60
2007,05,29,12,02,17.60
2007,05,29,12,03,17.70
2007,05,29,12,04,17.70
2007,05,29,12,05,17.80
2007,05,29,12,06,17.80
2007,05,29,12,07,17.70
2007,05,29,12,08,17.60
2007,05,29,12,09,17.70
2007,05,29,12,10,17.80
2007,05,29,12,11,17.80
2007,05,29,12,12,18.00
2007,05,29,12,13,18.10
2007,05,29,12,14,18.20
2007,05,29,12,15,18.20
2007,05,29,12,16,18.20
2007,05,29,12,17,18.30
2007,05,29,12,18,18.30
2007,05,29,12,19,18.30
2007,05,29,12,20,18.30
2007,05,29,12,21,18.10
2007,05,29,12,22,18.10
2007,05,29,12,23,18.10
2007,05,29,12,24,18.20
2007,05,29,12,25,18.30
2007,05,29,12,26,18.40
2007,05,29,12,27,18.40
2007,05,29,12,28,18.50
2007,05,29,12,29,18.50
2007,05,29,12,30,18.60
2007,05,29,12,31,18.70
2007,05,29,12,32,18.80
2007,05,29,12,33,18.90
2007,05,29,12,34,18.80
2007,05,29,12,35,18.60
2007,05,29,12,36,18.60
2007,05,29,12,37,18.60
2007,05,29,12,38,18.60
2007,05,29,12,39,18.50
2007,05,29,12,40,18.50
2007,05,29,12,41,18.60
2007,05,29,12,42,18.70
2007,05,29,12,43,18.70
2007,05,29,12,44,18.80
2007,05,29,12,45,18.80
2007,05,29,12,46,18.90
2007,05,29,12,47,18.80
2007,05,29,12,48,18.80
2007,05,29,12,49,18.80
2007,05,29,12,50,18.90
2007,05,29,12,51,18.90
2007,05,29,12,52,18.90
2007,05,29,12,53,18.90
2007,05,29,12,54,18.80
2007,05,29,12,55,18.90
2007,05,29,12,56,18.90
2007,05,29,12,57,18.90
2007,05,29,12,58,18.90
2007,05,29,12,59,18.90
2007,05,29,13,00,19.00
2007,05,29,13,01,19.10
2007,05,29,13,02,19.20
2007,05,29,13,03,19.20
2007,05,29,13,04,19.20
2007,05,29,13,05,19.20
2007,05,29,13,06,19.20
2007,05,29,13,07,19.10
2007,05,29,13,08,19.00
2007,05,29,13,09,18.90
2007,05,29,13,10,18.90
2007,05,29,13,11,19.00
2007,05,29,13,12,19.10
2007,05,29,13,13,19.20
2007,05,29,13,14,19.20
2007,05,29,13,15,19.10
2007,05,29,13,16,19.10
2007,05,29,13,17,19.20
2007,05,29,13,18,19.20
2007,05,29,13,19,19.20
2007,05,29,13,20,19.20
2007,05,29,13,21,19.30
2007,05,29,13,22,19.30
2007,05,29,13,23,19.30
2007,05,29,13,24,19.30
2007,05,29,13,25,19.30
2007,05,29,13,26,19.40
2007,05,29,13,27,19.50
2007,05,29,13,28,19.50
2007,05,29,13,29,19.60
2007,05,29,13,30,19.70
2007,05,29,13,31,19.80
2007,05,29,13,32,19.80
2007,05,29,13,33,19.80
2007,05,29,13,34,19.80
2007,05,29,13,35,19.80
2007,05,29,13,36,19.80
2007,05,29,13,37,19.80
2007,05,29,13,38,19.90
2007,05,29,13,39,19.90
2007,05,29,13,40,19.90
2007,05,29,13,41,19.90
2007,05,29,13,42,19.90
2007,05,29,13,43,19.90
2007,05,29,13,44,19.80
2007,05,29,13,45,19.90
2007,05,29,13,46,20.00
2007,05,29,13,47,20.10
2007,05,29,13,48,20.30
2007,05,29,13,49,20.30
2007,05,29,13,50,20.40
2007,05,29,13,51,20.40
2007,05,29,13,52,20.30
2007,05,29,13,53,20.20
2007,05,29,13,54,20.20
2007,05,29,13,55,20.30
2007,05,29,13,56,20.30
2007,05,29,13,57,20.30
2007,05,29,13,58,20.30
2007,05,29,13,59,20.30
2007,05,29,14,00,20.30
2007,05,29,14,01,20.40
2007,05,29,14,02,20.40
2007,05,29,14,03,20.40
2007,05,29,14,04,20.40
2007,05,29,14,05,20.40
2007,05,29,14,06,20.30
2007,05,29,14,07,20.40
2007,05,29,14,08,20.40
2007,05,29,14,09,20.40
2007,05,29,14,10,20.40
2007,05,29,14,11,20.50
2007,05,29,14,12,20.60
2007,05,29,14,13,20.70
2007,05,29,14,14,20.90
2007,05,29,14,15,20.90
2007,05,29,14,16,20.80
2007,05,29,14,17,20.80
2007,05,29,14,18,20.70
2007,05,29,14,19,20.70
2007,05,29,14,20,20.70
2007,05,29,14,21,20.70
2007,05,29,14,22,20.60
2007,05,29,14,23,20.60
2007,05,29,14,24,20.60
2007,05,29,14,25,20.70
2007,05,29,14,26,20.80
2007,05,29,14,27,20.90
2007,05,29,14,28,21.00
2007,05,29,14,29,21.10
2007,05,29,14,30,21.20
2007,05,29,14,31,21.30
2007,05,29,14,32,21.30
2007,05,29,14,33,21.30
2007,05,29,14,34,21.40
2007,05,29,14,35,21.40
2007,05,29,14,36,21.40
2007,05,29,14,37,21.50
2007,05,29,14,38,21.60
2007,05,29,14,39,21.60
2007,05,29,14,40,21.70
2007,05,29,14,41,21.80
2007,05,29,14,42,21.90
2007,05,29,14,43,21.90
2007,05,29,14,44,22.10
2007,05,29,14,45,22.20
2007,05,29,14,46,22.30
2007,05,29,14,47,22.30
2007,05,29,14,48,22.20
2007,05,29,14,49,22.20
2007,05,29,14,50,22.20
2007,05,29,14,51,22.10
2007,05,29,14,52,22.10
2007,05,29,14,53,22.00
2007,05,29,14,54,22.10
2007,05,29,14,55,22.10
2007,05,29,14,56,22.00
2007,05,29,14,57,22.00
2007,05,29,14,58,22.10
2007,05,29,14,59,22.20
2007,05,29,15,00,22.10
2007,05,29,15,01,22.00
2007,05,29,15,02,21.80
2007,05,29,15,03,21.80
2007,05,29,15,04,21.80
2007,05,29,15,05,21.70
2007,05,29,15,06,21.80
2007,05,29,15,07,21.80
2007,05,29,15,08,21.80
2007,05,29,15,09,21.90
2007,05,29,15,10,22.00
2007,05,29,15,11,22.10
2007,05,29,15,12,22.00
2007,05,29,15,13,22.00
2007,05,29,15,14,21.90
2007,05,29,15,15,21.90
2007,05,29,15,16,21.90
2007,05,29,15,17,21.80
2007,05,29,15,18,21.80
2007,05,29,15,19,21.80
2007,05,29,15,20,21.80
2007,05,29,15,21,21.90
2007,05,29,15,22,22.00
2007,05,29,15,23,22.10
2007,05,29,15,24,22.10
2007,05,29,15,25,22.20
2007,05,29,15,26,22.30
2007,05,29,15,27,22.30
2007,05,29,15,28,22.30
2007,05,29,15,29,22.40
2007,05,29,15,30,22.40
2007,05,29,15,31,22.30
2007,05,29,15,32,22.20
2007,05,29,15,33,22.20
2007,05,29,15,34,22.30
2007,05,29,15,35,22.50
2007,05,29,15,36,22.60
2007,05,29,15,37,22.60
2007,05,29,15,38,22.60
2007,05,29,15,39,22.70
2007,05,29,15,40,22.60
2007,05,29,15,41,22.60
2007,05,29,15,42,22.70
2007,05,29,15,43,22.90
2007,05,29,15,44,22.90
2007,05,29,15,45,23.00
2007,05,29,15,46,23.10
2007,05,29,15,47,23.30
2007,05,29,15,48,23.30
2007,05,29,15,49,23.30
2007,05,29,15,50,23.40
2007,05,29,15,51,23.60
2007,05,29,15,52,23.70
2007,05,29,15,53,23.80
2007,05,29,15,54,23.90
2007,05,29,15,55,24.00
2007,05,29,15,56,24.00
2007,05,29,15,57,23.90
2007,05,29,15,58,23.70
2007,05,29,15,59,23.60
2007,05,29,16,00,23.40
2007,05,29,16,01,23.20
2007,05,29,16,02,22.90
2007,05,29,16,03,22.60
2007,05,29,16,04,22.30
2007,05,29,16,05,22.10
2007,05,29,16,06,21.80
2007,05,29,16,07,21.70
2007,05,29,16,08,21.60
2007,05,29,16,09,21.40
2007,05,29,16,10,21.20
2007,05,29,16,11,21.00
2007,05,29,16,12,20.80
2007,05,29,16,13,20.70
2007,05,29,16,14,20.60
2007,05,29,16,15,20.60
2007,05,29,16,16,20.60
2007,05,29,16,17,20.60
2007,05,29,16,18,20.60
2007,05,29,16,19,20.60
2007,05,29,16,20,20.60
2007,05,29,16,21,20.60
2007,05,29,16,22,20.60
2007,05,29,16,23,20.70
2007,05,29,16,24,20.70
2007,05,29,16,25,20.70
2007,05,29,16,26,20.80
2007,05,29,16,27,20.80
2007,05,29,16,28,20.80
2007,05,29,16,29,21.00
2007,05,29,16,30,21.10
2007,05,29,16,31,21.30
2007,05,29,16,32,21.40
2007,05,29,16,33,21.40
2007,05,29,16,34,21.50
2007,05,29,16,35,21.50
2007,05,29,16,36,21.60
2007,05,29,16,37,21.60
2007,05,29,16,38,21.70
2007,05,29,16,39,21.80
2007,05,29,16,40,21.80
2007,05,29,16,41,21.80
2007,05,29,16,42,21.80
2007,05,29,16,43,21.80
2007,05,29,16,44,21.80
2007,05,29,16,45,21.70
2007,05,29,16,46,21.60
2007,05,29,16,47,21.50
2007,05,29,16,48,21.40
2007,05,29,16,49,21.30
2007,05,29,16,50,21.20
2007,05,29,16,51,21.20
2007,05,29,16,52,21.20
2007,05,29,16,53,21.20
2007,05,29,16,54,21.30
2007,05,29,16,55,21.40
2007,05,29,16,56,21.40
2007,05,29,16,57,21.40
2007,05,29,16,58,21.40
2007,05,29,16,59,21.30
2007,05,29,17,00,21.30
2007,05,29,17,01,21.30
2007,05,29,17,02,21.30
2007,05,29,17,03,21.30
2007,05,29,17,04,21.40
2007,05,29,17,05,21.40
2007,05,29,17,06,21.40
2007,05,29,17,07,21.30
2007,05,29,17,08,21.30
2007,05,29,17,09,21.30
2007,05,29,17,10,21.30
2007,05,29,17,11,21.30
2007,05,29,17,12,21.30
2007,05,29,17,13,21.30
2007,05,29,17,14,21.30
2007,05,29,17,15,21.30
2007,05,29,17,16,21.30
2007,05,29,17,17,21.30
2007,05,29,17,18,21.30
2007,05,29,17,19,21.30
2007,05,29,17,20,21.30
2007,05,29,17,21,21.40
2007,05,29,17,22,21.40
2007,05,29,17,23,21.50
2007,05,29,17,24,21.60
2007,05,29,17,25,21.80
2007,05,29,17,26,21.90
2007,05,29,17,27,22.10
2007,05,29,17,28,22.20
2007,05,29,17,29,22.30
2007,05,29,17,30,22.30
2007,05,29,17,31,22.30
2007,05,29,17,32,22.40
2007,05,29,17,33,22.40
2007,05,29,17,34,22.60